Location: Camp Creek
(33.9000°N, 111.8167°W)
Time: 22:21:32
(UTC-07:00)

Cosmos 1656 - Visible Passes

Search period start: 26 July 2016 00:00
Search period end: 05 August 2016 00:00
Orbit: 798 x 850 km, 71.1° (Epoch: 26 July)

Date Brightness Start Highest point End Pass type
(mag) Time Alt. Az. Time Alt. Az. Time Alt. Az.
26 Jul 3.5 03:04:27 73° SW 03:04:59 82° WNW 03:10:42 10° NNE visible
26 Jul 5.8 04:48:34 10° WNW 04:49:28 10° NW 04:50:21 10° NW visible
27 Jul 3.6 02:44:43 83° ENE 02:44:43 83° ENE 02:50:17 10° NNE visible
27 Jul 5.7 04:26:36 10° WNW 04:28:54 12° NW 04:31:11 10° NNW visible
28 Jul 4.0 02:24:57 62° ENE 02:24:57 62° ENE 02:29:50 10° NNE visible
28 Jul 5.6 04:06:24 13° WNW 04:08:21 15° NW 04:11:26 10° NNW visible
29 Jul 4.5 02:05:09 47° ENE 02:05:09 47° ENE 02:09:22 10° NNE visible
29 Jul 5.4 03:46:36 16° WNW 03:47:49 17° WNW 03:51:28 10° NNW visible
30 Jul 5.0 01:45:19 36° NE 01:45:19 36° NE 01:48:52 10° NNE visible
30 Jul 5.3 03:26:45 20° WNW 03:27:18 20° WNW 03:31:24 10° NNW visible
31 Jul 5.4 01:25:27 28° NE 01:25:27 28° NE 01:28:21 10° NE visible
31 Jul 5.2 03:06:53 23° WNW 03:06:53 23° WNW 03:11:16 10° N visible
01 Aug 5.7 01:05:34 22° NE 01:05:34 22° NE 01:07:46 10° NE visible
01 Aug 5.1 02:47:00 27° NW 02:47:00 27° NW 02:51:04 10° N visible
02 Aug 5.9 00:45:38 17° NE 00:45:38 17° NE 00:47:09 10° NE visible
02 Aug 5.1 02:27:04 29° NW 02:27:04 29° NW 02:30:51 10° N visible
03 Aug 6.2 00:25:41 13° NE 00:25:41 13° NE 00:26:29 10° NE visible
03 Aug 5.1 02:07:07 30° NNW 02:07:07 30° NNW 02:10:35 10° N visible
04 Aug 6.3 00:05:42 10° NE 00:05:42 10° NE 00:05:45 10° NE visible
04 Aug 5.2 01:47:08 30° NNW 01:47:08 30° NNW 01:50:17 10° N visible
